This is the latest recevied weather packets stored in our database for station/object JO1YDG-13. If no packets are shown the sender has not sent any weather packets the latest 10 day(s).
| Time | Temp. | Humidity | Pressure | Rain* | Wind** | Luminosity | Snow |
|---|---|---|---|---|---|---|---|
| 1777574166 | 11.67° C | 98% | 986.1 hPa | 4.06 mm | - | - | - |
| 1777573866 | 11.67° C | 98% | 986.1 hPa | 4.32 mm | - | - | - |
| 1777573567 | 11.67° C | 98% | 986.1 hPa | 4.06 mm | - | - | - |
| 1777573267 | 11.67° C | 97% | 986.1 hPa | 3.81 mm | - | - | - |
| 1777572966 | 11.67° C | 97% | 986.1 hPa | 3.56 mm | - | - | - |
| 1777572666 | 11.67° C | 97% | 986.1 hPa | 3.05 mm | - | - | - |
| 1777572366 | 11.67° C | 97% | 986.1 hPa | 3.05 mm | - | - | - |
| 1777572067 | 11.67° C | 97% | 986.4 hPa | 3.05 mm | - | - | - |
| 1777571767 | 11.67° C | 97% | 986.4 hPa | 2.54 mm | - | - | - |
| 1777571467 | 11.67° C | 97% | 986.4 hPa | 2.54 mm | - | - | - |
| 1777571167 | 11.67° C | 97% | 986.4 hPa | 2.29 mm | - | - | - |
| 1777570867 | 11.67° C | 96% | 986.4 hPa | 2.29 mm | - | - | - |
| 1777570567 | 11.67° C | 96% | 986.5 hPa | 2.29 mm | - | - | - |
| 1777570266 | 11.67° C | 97% | 986.5 hPa | 2.03 mm | - | - | - |
| 1777569966 | 11.67° C | 97% | 986.4 hPa | 2.03 mm | - | - | - |
| 1777569666 | 11.67° C | 97% | 986.4 hPa | 2.03 mm | - | - | - |
| 1777569367 | 11.67° C | 97% | 986.4 hPa | 2.03 mm | - | - | - |
| 1777569067 | 11.67° C | 97% | 986.4 hPa | 2.29 mm | - | - | - |
| 1777568767 | 11.67° C | 96% | 986.4 hPa | 2.29 mm | - | - | - |
| 1777568466 | 11.67° C | 96% | 986.5 hPa | 2.29 mm | - | - | - |
| 1777568168 | 11.67° C | 95% | 986.5 hPa | 2.29 mm | - | - | - |
| 1777567867 | 11.67° C | 95% | 986.5 hPa | 2.03 mm | - | - | - |
| 1777567567 | 11.67° C | 96% | 986.9 hPa | 2.03 mm | - | - | - |
| 1777567267 | 12.22° C | 96% | 986.9 hPa | 1.78 mm | - | - | - |
| 1777566967 | 12.22° C | 96% | 987.4 hPa | 2.03 mm | - | - | - |
* Rain latest hour (hover to see other rain measurements)
** Current wind speed in m/s (hover to see current wind gust speed)